Theta_e
326 326 325 325 325 326 326 327 326 325 323 321 321 321 318 317 319 321 321 320 318 317 317 317 317 317 317 317 318 318 317 317 318 318 317 316 315 314 314 314 313 312 312 312 313 313 312 312 312 312 313 313 312 312 311 311 311 310 310 310 311 312 312 313 313 310 307 305 305 304 304 305 305 305 305 306 305 304 304 304 303 303 305 306 305
328 327 327 326 326 326 327 327 327 326 325 323 323 321 318 319 320 320 321 321 319 318 318 317 317 317 316 317 317 317 317 317 318 318 318 318 317 316 316 315 314 314 314 313 312 312 313 312 312 312 313 313 312 312 311 311 310 310 310 309 310 311 311 311 312 310 307 306 305 304 305 305 305 305 305 305 305 304 304 304 303 303 302 303 305
327 327 327 326 326 326 327 326 326 327 326 324 323 321 319 318 319 321 321 320 319 319 318 318 318 317 317 317 317 317 317 317 317 318 318 318 318 318 318 317 316 316 315 314 313 313 313 314 313 312 313 313 313 312 312 311 311 310 310 310 310 310 310 311 311 310 309 307 306 306 306 306 306 305 305 305 305 305 305 305 304 303 303 302 303
327 326 326 326 326 326 326 326 326 326 326 325 323 323 321 317 316 320 322 321 321 320 319 318 318 318 319 319 319 319 319 319 319 319 319 319 318 318 318 318 317 317 317 317 315 315 315 315 314 313 313 314 313 312 312 312 311 310 310 310 310 310 310 310 311 311 310 309 308 307 307 307 306 305 305 306 306 306 306 305 305 305 305 304 303
326 326 325 326 326 326 325 325 325 326 326 326 324 324 323 321 318 319 321 322 322 321 321 320 320 320 320 320 320 321 320 320 320 320 320 320 319 319 319 318 318 318 318 317 317 316 316 316 315 315 314 314 314 313 312 312 311 310 310 310 310 310 310 310 310 311 311 310 309 308 308 308 307 306 306 306 307 307 307 307 306 306 306 306 305
327 326 326 325 325 325 325 325 324 325 325 325 325 324 324 324 321 320 320 322 322 323 322 322 321 322 321 321 321 321 321 321 321 321 321 321 320 320 320 319 318 318 318 318 316 316 316 316 316 315 315 314 315 314 313 312 310 309 309 309 309 309 309 310 311 311 311 311 310 309 309 309 308 308 306 306 307 308 308 307 307 307 306 306 305
327 326 326 326 325 325 325 324 324 324 324 324 324 324 324 324 323 322 320 321 322 323 322 322 322 322 322 322 321 322 322 322 321 321 321 321 321 321 320 318 318 318 319 319 318 317 316 316 316 316 314 314 314 314 314 312 311 309 308 308 308 309 309 310 311 311 312 312 311 311 310 308 309 308 307 307 308 307 307 307 308 307 306 306 305
326 326 326 326 326 326 325 325 324 324 323 323 323 323 322 323 323 322 322 322 321 322 322 323 323 323 323 323 322 323 323 322 321 321 321 321 321 321 321 320 320 320 321 320 320 319 318 317 317 316 315 314 314 314 313 311 310 309 308 307 307 308 309 310 310 311 311 312 311 311 310 309 309 309 308 308 308 308 307 306 307 307 306 305 305
325 325 325 325 325 325 325 324 324 324 323 323 323 322 322 323 324 323 324 324 323 322 322 322 323 323 323 323 323 323 322 322 322 321 321 322 322 322 322 322 322 322 322 322 321 320 320 319 318 317 316 315 314 314 313 311 310 310 308 306 307 308 308 309 310 311 311 312 312 311 311 311 310 309 309 308 307 307 307 306 306 306 305 305 304
323 323 323 324 324 324 324 324 324 323 323 323 322 322 322 323 324 325 325 324 323 322 322 322 323 323 322 322 323 323 323 322 319 317 319 321 322 322 322 322 322 322 322 322 321 321 321 320 319 318 316 315 314 313 313 312 311 310 309 308 308 308 308 309 310 311 311 312 312 311 311 311 310 309 308 308 307 307 306 306 306 305 305 304 304
323 323 323 323 323 323 323 324 323 323 323 322 322 322 322 323 324 324 324 323 323 323 323 323 323 323 323 322 323 323 323 321 317 315 316 318 320 322 323 322 322 322 322 322 322 321 321 320 320 319 317 315 313 313 313 312 311 309 308 307 306 307 308 309 310 310 310 310 310 309 309 310 309 308 307 307 306 306 306 305 305 305 304 304 303
322 322 323 322 322 322 322 322 322 322 322 322 322 322 321 322 323 323 323 323 323 323 323 322 322 322 322 322 322 322 322 321 317 316 318 318 319 321 323 323 323 323 322 322 322 321 321 321 321 319 317 315 313 312 312 311 310 309 307 305 304 304 306 307 308 308 308 308 308 307 308 308 308 308 307 306 305 305 305 304 304 303 303 302 302
316 317 319 320 321 322 321 322 322 322 322 322 321 322 322 322 322 323 323 322 321 322 321 320 321 321 320 320 320 321 321 320 318 317 318 319 319 320 322 322 321 321 321 321 320 320 320 320 320 319 318 316 314 313 312 311 309 308 307 305 303 302 303 304 306 307 307 306 306 307 307 307 306 307 306 304 303 304 304 303 303 302 301 301 300
311 312 314 315 316 316 316 318 319 320 321 322 321 322 322 322 322 322 321 320 319 320 319 318 318 318 318 319 320 320 321 320 319 318 319 320 319 318 319 320 319 318 318 318 318 318 318 318 318 317 318 316 315 315 313 310 309 307 304 303 302 302 303 304 305 305 304 304 305 306 307 306 305 305 304 302 302 302 302 302 301 300 300 300 300
310 311 311 311 311 311 311 312 313 315 318 320 321 321 321 321 321 320 319 318 317 316 314 314 314 315 317 319 321 321 320 319 319 319 319 319 316 314 316 317 315 315 316 316 316 317 317 317 317 316 317 316 316 315 312 309 307 305 303 303 303 302 303 304 303 302 301 303 304 306 305 304 303 302 301 300 300 300 300 300 299 299 299 300 301
310 310 310 310 309 309 310 310 310 312 313 315 317 318 319 319 319 318 317 317 317 315 313 313 314 315 316 318 319 319 319 319 319 319 319 317 314 313 315 315 314 314 315 314 315 315 316 317 316 316 316 315 315 314 310 307 306 305 305 305 304 303 303 302 302 301 301 301 302 302 302 301 300 299 298 297 297 297 297 298 298 299 300 300 300
308 308 309 310 310 309 309 309 309 310 310 311 312 313 315 316 317 316 316 316 317 316 315 316 315 314 315 316 317 317 318 319 319 319 317 315 314 314 315 314 314 315 314 313 314 314 313 314 315 315 315 313 313 311 309 307 307 307 307 306 305 304 303 302 301 301 301 301 300 300 300 299 298 297 296 295 294 294 295 296 298 298 299 299 299
306 307 307 308 309 309 309 309 309 310 310 309 310 311 314 315 315 315 314 314 315 314 313 313 313 312 313 313 313 314 314 315 318 318 317 316 315 315 314 314 315 314 313 313 312 311 311 311 312 313 312 310 310 309 307 307 308 308 308 307 307 306 304 301 300 300 299 299 299 298 298 297 296 295 294 294 293 293 294 296 297 297 298 298 299
304 304 305 306 307 308 309 309 309 310 310 310 311 312 313 313 313 312 312 312 312 311 310 309 309 309 308 305 305 309 308 307 310 314 316 316 316 315 313 314 314 314 313 312 311 309 309 308 308 309 308 308 308 307 305 306 309 309 308 308 307 306 303 301 300 300 299 299 299 298 298 297 296 296 296 295 295 294 294 295 296 297 297 298 298
303 303 303 304 305 306 307 307 308 309 310 310 311 311 311 312 311 311 310 309 309 308 307 308 308 308 306 302 303 307 307 303 302 306 309 313 315 315 313 313 314 314 312 311 310 308 307 306 306 307 306 306 305 303 303 305 308 307 307 306 306 304 301 300 299 298 298 299 299 299 299 299 298 298 298 297 296 296 295 295 296 296 297 297 297
303 303 303 303 303 304 305 306 307 307 308 309 310 310 310 310 311 311 310 308 308 307 307 308 309 308 307 306 305 305 305 303 302 302 304 308 312 314 313 313 313 313 312 311 310 308 306 304 304 304 304 303 303 302 302 303 304 304 304 303 302 300 299 299 298 296 297 298 299 298 298 298 298 298 298 298 297 296 296 296 296 295 296 296 296
302 302 303 303 303 304 304 305 306 306 307 307 309 309 309 309 310 310 309 309 310 310 309 309 310 309 309 309 308 305 303 303 303 304 305 308 311 313 313 312 312 312 311 310 309 308 305 303 302 302 302 302 302 301 302 301 301 301 299 298 298 296 296 297 298 297 297 298 298 298 298 298 298 298 297 297 297 296 296 296 295 295 295 295 295
301 301 302 302 302 303 303 304 305 305 306 306 307 308 309 309 310 309 309 310 311 311 310 309 310 310 309 309 308 307 305 304 305 306 307 310 311 312 312 312 312 311 310 309 308 306 303 302 301 300 300 300 300 300 300 299 298 297 296 296 295 294 295 296 297 297 297 297 297 297 298 297 297 297 297 297 296 296 295 295 294 294 294 294 294
301 301 301 301 302 302 302 303 303 304 305 306 306 307 307 308 310 309 309 309 309 309 309 309 309 309 309 308 307 306 306 306 306 308 309 311 311 311 311 310 310 310 309 308 307 305 302 301 300 299 299 299 298 298 298 297 296 295 295 294 293 294 295 297 297 297 297 297 297 297 297 297 297 296 296 296 295 294 294 294 294 294 294 294 293
300 300 300 301 301 301 302 302 303 303 304 304 305 306 306 307 309 310 309 309 309 308 309 308 308 309 309 308 307 308 307 307 307 308 309 310 310 309 310 308 308 308 307 306 305 304 302 301 299 297 296 296 296 296 296 295 294 294 293 292 294 295 296 296 296 296 297 297 296 296 296 296 296 295 295 294 293 293 293 294 293 293 293 292 292
299 299 300 300 300 301 301 301 302 302 303 303 304 304 305 306 307 309 309 309 309 309 309 309 308 309 309 308 307 308 307 307 306 307 308 309 308 308 307 307 306 306 305 304 303 301 300 298 297 296 295 295 296 295 294 293 293 293 292 293 295 296 296 295 295 296 296 296 296 295 295 295 295 294 293 293 293 293 293 292 292 292 291 291 291
297 298 299 299 300 300 300 301 301 301 302 303 303 303 304 305 305 307 308 309 309 309 309 309 308 308 308 308 307 307 307 307 307 306 306 307 306 305 305 304 304 303 302 301 300 298 297 296 295 295 294 295 295 294 293 293 294 294 294 295 295 295 294 294 294 294 295 295 295 295 295 295 294 293 293 292 292 292 292 292 291 291 291 291 291
296 296 297 298 298 299 300 300 300 300 301 301 302 302 303 304 304 305 306 308 308 308 308 308 308 308 307 308 308 307 307 308 307 307 305 305 304 303 303 303 302 301 300 299 297 296 295 294 294 294 294 295 295 295 295 295 295 295 295 295 295 294 293 293 293 294 295 295 294 294 294 294 294 293 292 292 292 292 292 292 291 291 291 291 291
296 296 296 297 297 298 298 299 300 300 300 300 301 302 302 303 305 305 306 307 308 308 308 308 308 308 307 307 307 308 307 307 307 307 306 305 304 303 303 303 302 301 300 299 297 295 295 295 296 296 296 296 296 296 296 295 295 295 294 294 294 294 293 293 293 294 293 293 293 293 293 293 293 292 292 292 292 291 292 291 291 291 291 291 291
296 296 296 297 297 297 297 298 299 300 300 300 300 301 302 303 303 302 303 305 307 308 308 308 307 308 307 307 307 307 307 306 306 305 305 305 304 303 303 302 302 301 300 299 298 297 297 297 297 297 297 296 296 296 295 295 295 294 293 292 293 293 292 292 293 292 292 292 293 293 292 292 292 292 292 291 291 291 291 291 291 291 291 291 291
296 295 295 296 296 296 296 297 297 298 300 300 300 301 301 302 302 300 300 302 303 305 307 307 307 307 307 307 307 306 306 306 304 304 305 304 303 303 302 301 301 300 299 297 297 298 298 298 297 296 296 296 295 295 295 294 294 294 293 293 293 292 291 291 292 291 291 292 292 292 292 292 292 292 291 291 291 290 291 291 291 291 291 291 291
295 295 295 295 295 295 296 296 296 297 298 299 300 300 301 302 302 301 300 300 300 302 303 305 306 305 306 306 305 305 305 305 303 303 304 303 302 302 301 300 300 298 297 297 297 298 298 297 297 296 296 295 295 294 294 294 293 293 293 293 293 292 291 291 291 291 292 292 292 292 292 292 292 291 291 291 290 290 290 290 290 291 291 291 291
294 294 294 294 294 294 295 295 296 296 297 298 299 300 300 301 302 302 301 300 299 300 301 301 302 303 304 304 303 302 303 303 303 303 303 301 300 300 299 298 297 297 296 296 297 297 297 297 296 296 295 295 295 294 294 294 293 293 293 293 292 292 291 291 290 291 292 292 292 292 292 292 291 291 291 291 291 290 290 290 290 290 291 291 291
293 293 293 293 293 294 294 295 295 296 296 297 298 299 300 300 301 302 303 302 301 301 301 300 300 301 301 301 301 301 301 302 302 302 301 299 298 297 297 296 296 295 295 297 297 297 296 296 296 295 295 295 294 294 294 293 293 293 293 293 292 292 291 290 290 291 292 292 292 292 292 291 291 291 291 291 290 290 290 290 290 290 291 291 291
293 293 293 293 293 293 293 294 295 295 296 297 298 298 299 300 300 301 303 303 303 303 303 301 300 300 299 298 299 300 301 302 302 301 299 298 297 296 296 295 294 294 295 297 297 296 296 296 295 295 295 294 294 293 293 293 293 293 293 292 292 291 290 290 290 291 292 292 292 292 291 291 291 291 290 290 290 290 290 290 290 290 290 290 291
294 294 294 294 293 293 293 293 293 294 295 296 297 298 298 299 300 301 302 303 303 303 304 302 300 300 299 299 299 299 300 301 301 299 298 297 296 295 295 295 294 295 296 297 296 296 295 295 295 295 295 294 294 293 293 293 293 293 292 292 291 290 289 290 291 291 291 292 292 291 291 291 291 290 290 290 290 290 290 290 290 290 290 290 290
295 295 294 294 294 294 294 293 293 293 294 294 296 297 298 298 299 300 301 302 302 302 302 301 299 299 299 298 298 299 299 298 297 296 296 296 295 295 295 295 295 295 296 296 296 295 295 295 295 295 295 294 294 293 293 293 293 293 292 291 290 289 289 289 290 290 291 291 292 291 291 291 291 290 290 290 289 289 290 289 290 290 290 290 290
295 295 295 294 294 294 294 293 292 292 293 293 294 296 297 298 298 299 300 301 301 301 301 300 299 299 297 295 295 296 295 294 294 294 294 294 294 294 295 295 295 296 296 295 295 295 295 294 294 294 294 294 294 293 293 292 292 292 291 290 290 289 289 290 291 291 291 291 291 291 291 291 290 290 290 289 289 289 290 290 289 290 290 290 290
295 295 295 294 293 293 293 293 292 292 292 293 294 295 296 298 298 298 299 300 300 301 301 301 300 300 298 295 293 292 292 292 293 293 293 294 294 295 296 296 295 295 295 294 294 294 294 294 294 294 294 293 293 293 293 292 292 291 290 290 289 289 290 291 292 292 291 291 291 291 291 290 290 290 290 289 289 289 289 289 289 289 289 289 290
294 295 294 293 293 293 293 292 292 292 292 293 293 294 296 297 298 298 299 299 299 300 301 301 300 299 296 293 292 292 292 293 294 294 294 294 295 295 295 295 295 294 294 294 294 293 293 293 293 293 293 293 292 292 292 291 291 290 290 289 289 289 290 291 291 291 291 291 290 290 290 290 290 290 289 289 289 289 289 289 289 289 289 289 289
294 294 294 293 293 293 292 292 292 292 292 293 293 294 296 297 298 298 298 298 299 300 301 301 299 297 294 293 292 291 292 293 293 293 293 294 294 295 295 295 294 294 294 294 293 293 293 293 293 293 293 292 292 292 291 290 290 290 289 289 289 289 289 290 290 290 290 290 290 290 289 289 289 289 289 288 289 289 289 289 289 289 289 289 289
293 293 293 292 292 292 292 292 291 291 292 292 293 294 296 297 297 297 298 298 298 299 300 299 297 294 293 293 292 292 293 293 292 292 292 293 294 294 294 294 294 294 294 294 293 293 293 292 293 292 292 292 291 291 290 289 289 289 288 288 288 288 289 290 290 289 289 289 289 289 288 288 288 288 288 288 289 289 289 290 289 290 290 290 290
293 293 293 292 291 291 291 292 292 292 293 293 293 294 296 297 296 297 297 297 296 297 297 296 294 292 291 291 291 292 293 292 291 292 293 294 294 294 294 293 293 293 294 293 293 292 292 292 292 292 291 290 290 289 289 289 288 288 288 288 288 288 288 289 289 288 289 289 289 288 287 287 287 288 288 289 289 289 289 290 290 290 290 290 290
293 293 293 293 292 292 292 292 293 292 292 293 294 295 296 296 296 296 296 295 294 294 295 294 293 292 291 291 291 292 292 292 292 292 293 293 293 293 293 293 293 293 293 293 292 291 292 292 292 291 291 289 288 288 288 287 287 287 287 287 287 287 287 287 287 288 289 289 288 287 287 287 287 288 288 289 289 289 290 290 290 290 290 290 290
293 293 292 292 292 292 292 293 294 294 294 294 295 295 296 296 296 296 295 294 293 293 293 293 293 292 292 292 292 293 293 293 293 293 293 293 293 293 293 292 292 292 292 291 291 291 292 291 291 290 290 288 287 287 287 287 286 286 286 286 286 286 286 287 287 289 290 289 288 287 286 286 287 287 288 288 289 290 290 290 290 290 290 290 290
293 293 293 292 292 292 292 292 293 294 295 295 295 296 296 296 295 295 295 294 294 293 293 293 293 292 292 292 293 293 293 293 293 293 293 293 293 293 292 292 292 292 291 290 290 290 291 290 290 289 288 287 286 286 286 286 286 286 286 286 286 285 286 287 288 289 290 289 288 287 286 286 286 286 287 288 289 290 290 290 290 290 290 290 290
294 293 293 293 293 292 292 291 291 292 294 294 295 295 295 295 294 293 293 293 293 293 293 292 292 292 291 292 292 292 292 292 292 292 292 292 292 292 292 291 291 291 290 290 289 289 289 289 289 288 287 286 286 286 286 286 286 286 285 285 285 285 285 286 288 289 290 289 289 288 287 287 286 287 288 289 289 290 290 290 290 290 290 290 290
294 293 293 292 292 292 292 291 291 291 291 293 294 294 294 294 293 293 292 292 293 292 292 291 291 291 291 291 291 291 291 291 291 291 291 291 291 291 291 291 290 290 289 289 289 289 289 288 288 288 286 286 286 286 286 286 287 286 285 285 285 285 285 286 288 289 289 289 289 289 288 287 286 287 289 289 290 290 290 290 290 290 290 290 290
295 294 293 292 292 292 291 291 290 290 291 291 292 293 292 293 293 292 292 292 292 291 291 291 291 290 291 291 291 291 291 291 291 291 291 291 291 290 290 290 290 290 289 288 288 288 288 288 288 288 287 286 286 286 286 286 286 287 287 286 286 286 285 286 287 289 290 289 289 289 288 287 287 288 289 290 290 290 290 290 290 290 290 290 290
295 294 294 293 292 291 291 290 290 290 290 290 291 291 291 291 291 291 291 291 290 290 290 290 290 290 290 290 290 291 291 291 290 290 290 291 290 290 289 289 289 289 288 288 288 288 288 288 288 288 287 286 286 286 286 287 287 288 288 287 286 286 285 286 287 289 289 289 289 289 288 288 288 289 290 290 290 290 290 290 290 290 290 290 291
295 294 294 293 293 292 291 291 291 290 290 290 290 290 290 290 290 290 290 290 289 289 290 290 290 290 290 290 291 291 291 291 291 291 290 290 289 289 289 288 288 288 288 287 287 287 287 287 287 287 287 286 286 286 287 288 289 289 288 287 286 286 286 285 286 288 289 289 289 289 289 288 289 289 290 290 290 290 290 290 290 290 290 291 291
Wind_Speed
4 5 5 6 8 8 10 11 11 12 14 14 12 11 11 11 10 9 9 11 13 14 14 12 11 10 10 10 9 9 8 8 7 7 7 7 6 6 5 4 4 4 4 4 3 3 3 4 4 4 3 3 3 3 4 4 4 4 4 4 4 3 2 3 6 7 5 4 4 4 3 3 3 4 3 3 2 3 3 3 4 4 2 4 7
2 3 4 5 7 8 8 9 10 11 13 14 13 12 11 11 10 9 9 10 12 13 14 13 12 11 11 10 9 9 8 8 7 6 7 7 6 6 5 4 4 4 3 2 2 2 2 2 3 3 2 2 2 2 3 3 3 4 4 4 5 4 3 3 5 6 6 5 4 4 3 2 2 3 3 3 2 1 1 2 3 3 4 3 5
2 2 3 4 5 7 7 8 9 10 12 13 13 13 13 12 11 10 9 10 11 12 13 14 13 12 12 11 10 9 8 8 7 7 6 6 6 5 5 4 4 4 3 2 2 2 1 1 2 2 2 2 1 2 2 2 2 4 5 5 5 5 4 3 4 5 6 5 4 4 3 2 1 2 2 1 2 1 1 2 2 2 4 5 3
3 2 3 3 4 6 7 8 9 10 11 13 13 13 13 13 12 11 10 9 10 11 13 14 14 13 12 12 12 10 9 8 7 7 6 5 5 5 5 4 3 3 2 2 1 1 1 1 1 1 1 1 1 1 2 2 2 4 4 4 5 5 5 4 3 4 5 5 3 2 2 2 2 1 1 1 0 1 2 2 3 2 4 6 4
4 4 4 5 6 7 8 9 10 10 10 11 13 13 12 12 13 12 11 10 11 11 12 13 13 13 13 13 13 12 11 10 8 7 6 5 5 5 5 4 3 3 3 2 2 2 2 2 2 1 1 1 2 1 1 1 1 2 2 3 4 4 4 3 3 3 3 4 3 2 1 2 1 1 2 3 2 3 3 4 4 4 4 7 6
5 5 5 6 7 7 8 9 10 10 9 10 12 13 12 12 13 12 12 12 12 12 12 13 13 13 13 13 13 13 12 11 10 8 7 6 6 5 6 5 5 5 5 5 5 4 4 4 4 3 3 3 2 1 1 1 0 0 0 1 2 3 3 3 3 2 2 3 3 2 1 0 0 1 2 4 4 4 5 7 6 5 6 8 8
5 5 6 7 8 9 10 10 11 11 10 9 10 12 12 13 13 13 13 14 14 13 13 13 13 12 12 12 12 12 12 12 11 9 8 7 6 6 6 7 7 7 7 6 6 7 8 7 7 7 7 6 4 3 2 2 0 1 1 1 1 2 2 2 2 2 2 2 1 1 1 0 1 2 2 4 4 4 6 9 9 8 8 9 10
5 5 6 7 8 9 9 9 10 10 11 11 11 11 12 13 14 14 14 15 15 14 13 13 12 12 11 11 11 11 11 10 10 9 8 8 7 6 7 7 7 7 8 7 8 9 10 10 10 11 11 10 9 8 8 8 7 5 4 2 2 2 2 2 2 2 2 2 1 1 1 1 1 2 3 4 5 6 7 9 10 11 11 11 11
5 5 5 4 5 5 6 6 7 8 9 11 11 12 13 14 14 14 14 14 13 13 13 12 12 12 11 10 10 11 10 10 9 9 8 8 8 7 7 7 7 7 7 8 8 9 11 11 12 14 14 13 12 12 13 12 10 9 8 7 5 5 4 3 3 3 3 3 3 2 3 4 3 3 4 4 6 8 8 9 11 12 12 13 13
5 5 5 5 4 4 4 4 5 6 7 8 9 10 11 12 12 13 13 12 12 11 11 11 11 11 11 10 10 10 9 10 11 11 9 9 9 8 7 7 7 7 7 8 8 9 10 10 12 14 15 15 15 14 14 12 10 10 9 8 7 5 4 4 5 4 4 4 3 3 4 6 4 4 4 4 5 7 9 10 12 13 13 13 13
6 5 5 5 4 3 3 3 3 4 5 6 7 8 9 10 10 11 11 11 11 10 10 10 9 9 9 9 8 8 8 10 13 14 12 12 10 8 7 7 6 6 7 7 7 8 8 8 8 10 12 14 15 15 14 13 12 12 12 10 9 9 7 6 4 2 2 3 2 2 4 5 5 4 4 4 6 8 9 11 12 12 12 13 14
5 5 4 4 3 3 2 2 2 3 4 5 6 7 7 8 8 8 9 10 10 8 7 7 6 6 7 8 8 8 8 10 12 12 12 12 11 10 7 6 6 5 6 6 6 6 6 7 7 7 8 10 12 12 14 15 15 15 14 12 12 11 10 9 6 2 1 1 1 3 3 4 5 4 3 5 8 9 10 11 11 11 12 13 14
6 5 4 4 3 2 2 1 1 1 3 4 5 5 6 6 6 6 7 8 8 7 6 5 6 8 9 10 10 9 10 12 12 11 12 12 11 10 7 5 5 4 4 4 5 5 5 6 7 6 7 7 8 8 11 14 17 18 16 14 13 12 11 10 7 5 3 2 1 3 2 4 5 4 3 5 8 9 10 11 11 11 13 14 15
6 6 5 4 4 3 2 2 1 0 1 3 5 6 6 6 6 7 8 9 9 9 8 7 9 11 10 10 9 8 11 12 11 11 11 11 11 10 7 5 4 3 2 2 3 3 4 5 5 5 6 6 7 8 10 13 18 20 16 14 14 12 10 8 7 6 4 2 2 3 2 3 4 4 4 6 7 8 10 11 12 13 14 16 17
6 5 4 4 4 3 3 2 1 0 1 2 4 5 6 6 7 8 9 10 9 8 7 8 9 10 9 9 8 8 11 11 11 12 12 12 12 10 7 4 3 3 2 1 1 2 2 3 4 5 5 5 7 9 10 12 17 18 15 13 13 13 11 8 6 5 4 2 2 2 2 4 5 5 6 6 7 8 10 12 13 14 15 16 16
6 5 4 3 3 3 2 2 1 0 1 2 4 5 5 6 7 8 8 8 8 9 8 8 9 9 8 9 10 10 10 11 12 13 13 13 12 9 6 5 4 4 3 2 1 1 0 1 2 3 3 5 8 9 11 12 15 16 14 12 12 11 10 8 5 5 5 5 6 6 7 9 11 11 11 11 10 10 11 13 14 14 14 15 15
7 6 5 4 4 4 3 3 3 3 3 4 5 5 6 7 7 8 9 9 9 10 10 9 10 11 10 10 10 8 8 11 13 13 13 13 12 8 6 6 5 4 4 3 3 2 2 2 2 1 2 5 7 9 12 13 13 13 12 11 10 8 7 7 6 6 7 8 9 10 11 12 13 14 14 15 14 12 12 12 13 13 14 15 15
8 7 6 6 5 5 4 4 5 5 6 7 6 6 6 7 8 9 10 10 11 11 12 12 11 11 10 9 8 6 7 10 12 13 13 14 13 9 7 7 6 5 5 5 4 3 3 3 4 4 4 5 6 9 13 12 10 10 10 9 8 7 6 6 6 7 8 9 9 11 12 13 14 15 15 14 14 13 12 13 13 13 14 14 14
9 8 8 8 7 6 6 6 6 6 6 7 7 6 6 7 9 10 10 10 11 11 11 11 11 10 9 9 8 7 6 8 10 11 12 13 13 10 7 6 7 6 6 7 6 6 5 5 6 6 4 4 6 10 13 11 7 8 8 7 6 5 4 4 4 4 5 7 8 9 11 12 13 13 12 13 14 13 12 12 12 13 13 14 15
9 9 9 8 8 7 6 6 7 7 7 6 6 6 6 7 9 11 10 10 11 12 11 11 11 11 11 11 10 8 7 7 8 9 10 11 13 11 8 7 7 7 7 8 8 8 7 7 7 6 5 6 8 10 13 11 7 6 5 4 4 4 3 3 4 4 4 6 7 8 9 10 10 9 10 11 13 12 11 11 12 13 14 16 16
9 10 10 10 10 9 8 7 8 8 9 8 8 7 8 8 9 11 11 11 12 13 13 12 12 12 12 11 11 10 9 9 8 9 10 10 12 13 9 7 8 8 8 8 8 8 9 8 8 7 6 7 8 9 10 9 6 5 3 3 4 4 2 2 5 7 6 7 8 9 9 9 9 9 9 9 10 10 10 11 13 15 16 18 19
11 11 11 11 11 11 10 9 9 9 9 9 9 10 10 11 11 12 12 12 12 12 12 12 12 12 11 10 10 10 10 10 9 10 10 10 12 13 10 8 9 9 8 8 8 9 9 10 10 9 8 8 8 7 6 6 5 4 3 3 4 4 3 2 4 6 6 7 8 9 9 10 9 9 9 9 10 9 9 11 14 16 17 18 19
12 12 13 13 13 13 12 11 10 10 10 10 11 12 12 13 13 14 14 13 13 13 14 13 12 11 11 10 10 12 12 11 10 11 11 11 13 14 13 12 12 10 8 9 9 10 11 12 12 11 9 8 7 6 5 4 4 3 3 3 3 3 2 2 4 5 6 7 8 9 9 9 9 9 9 9 9 9 11 14 16 17 18 19 19
13 13 13 14 14 14 14 13 12 11 11 10 11 12 13 15 16 17 16 17 16 15 15 15 14 13 12 12 12 12 13 12 12 12 12 12 13 14 14 14 14 10 8 8 10 11 12 14 14 12 10 8 7 6 4 3 2 2 1 1 3 3 1 3 4 5 6 7 8 8 9 9 9 9 9 9 11 12 14 16 17 17 18 19 19
15 15 15 15 15 15 15 15 14 14 13 13 12 13 13 16 18 19 19 19 19 18 17 16 16 15 13 12 11 11 11 12 13 13 13 13 13 14 14 15 16 13 10 11 12 13 13 14 14 12 10 8 6 5 4 3 2 1 2 3 3 1 2 3 4 5 7 7 7 8 9 8 8 9 10 12 14 15 15 16 16 16 16 17 18
16 17 17 17 17 17 18 18 17 16 15 15 15 15 15 16 18 20 20 21 22 21 19 17 18 18 15 14 13 13 12 13 13 15 15 15 15 15 15 15 17 15 13 13 13 13 13 13 13 11 9 8 7 6 4 3 3 3 4 4 2 0 2 3 4 5 6 7 7 8 8 8 9 11 13 14 14 14 14 14 15 15 15 16 16
16 17 18 18 19 19 19 19 19 18 17 16 17 17 17 17 18 20 21 22 22 22 19 19 21 21 18 16 15 15 15 14 14 16 17 17 17 17 17 17 17 15 14 14 15 15 15 14 12 11 9 8 7 5 3 3 3 3 2 2 1 1 2 4 4 5 5 6 7 8 9 11 12 13 14 14 14 14 14 14 15 15 15 15 16
16 17 18 18 19 20 20 20 20 20 19 19 19 19 19 19 19 20 22 22 22 22 22 22 21 21 20 18 16 16 15 15 15 16 17 18 18 18 18 18 16 15 16 17 17 16 15 13 11 9 8 7 5 4 3 3 3 1 1 0 0 1 3 5 5 4 5 7 8 10 11 13 13 13 13 14 14 15 14 15 15 16 16 16 16
18 19 18 18 19 19 20 21 21 21 20 21 20 21 20 19 17 17 18 19 19 19 20 21 20 19 20 20 17 16 16 16 17 18 20 20 19 18 18 18 16 16 18 18 17 16 14 11 10 8 7 6 5 4 4 3 2 2 2 1 1 1 3 4 4 5 6 8 9 11 12 12 13 13 13 14 15 15 15 15 16 16 16 16 16
20 20 19 19 19 19 19 20 21 20 21 21 20 20 21 20 20 19 17 17 18 19 19 19 18 18 18 17 17 18 17 16 19 21 20 21 20 19 19 20 19 19 19 18 16 15 12 10 8 7 6 6 5 4 3 3 3 3 2 0 0 1 3 4 4 6 7 8 9 11 12 12 13 13 13 14 15 16 15 15 15 15 15 16 17
20 20 20 20 20 20 20 21 20 20 21 22 21 20 19 18 20 21 21 19 20 21 23 21 20 20 18 12 12 16 18 17 19 21 21 21 22 21 21 22 20 19 19 17 14 12 10 9 8 7 6 5 4 4 4 3 3 2 1 1 1 2 3 4 5 7 7 8 10 12 12 12 13 13 14 15 15 16 16 15 14 15 15 16 17
20 20 20 20 21 21 21 22 22 21 21 22 23 22 20 18 17 17 19 20 18 19 22 22 21 23 22 14 8 12 17 17 16 19 22 23 23 21 21 20 19 18 19 16 12 10 10 9 8 7 6 5 5 4 4 4 3 2 1 1 1 2 3 4 6 6 7 9 11 12 11 12 13 13 14 15 15 16 16 15 14 15 15 16 17
20 21 21 21 21 21 21 21 22 22 21 21 22 23 22 21 17 15 15 16 16 16 19 21 19 19 21 18 12 11 14 15 15 19 23 24 22 21 20 19 19 20 19 14 10 9 9 8 8 7 6 6 5 5 5 4 3 2 1 1 2 3 4 6 6 6 7 10 12 12 12 12 13 14 15 15 15 16 16 16 16 16 16 17 17
20 21 22 22 22 22 21 20 21 21 21 20 21 22 22 21 19 16 13 12 12 12 15 18 18 17 17 16 13 10 9 10 14 21 24 23 22 22 22 21 21 20 16 11 9 10 10 8 8 7 6 6 6 5 5 4 2 1 1 2 3 4 5 6 6 6 8 10 12 12 12 13 13 14 15 15 15 15 15 16 16 16 16 17 17
20 21 22 24 24 24 23 21 20 20 20 19 19 21 22 20 19 18 15 11 11 12 12 12 14 16 15 14 13 11 10 11 16 23 25 24 24 24 24 22 21 18 13 9 9 10 9 8 8 7 6 6 6 5 5 3 2 1 1 2 4 5 6 7 7 7 8 11 12 12 12 13 14 15 16 16 15 15 16 16 16 16 17 17 17
19 19 20 22 22 23 23 23 21 20 19 19 19 20 22 20 17 15 14 11 10 11 10 8 7 9 11 13 15 15 14 16 21 26 27 27 27 26 23 20 17 15 12 10 10 10 9 8 8 7 6 6 6 5 4 3 1 1 2 3 4 5 6 6 7 8 9 11 13 13 12 13 14 15 15 15 15 15 16 16 16 17 17 17 17
18 19 19 19 20 22 23 23 21 20 19 19 18 18 20 20 17 15 13 11 10 9 9 9 8 5 4 8 13 16 17 21 26 28 28 28 27 22 18 16 15 14 12 11 10 10 9 8 7 7 6 6 6 5 3 2 1 1 2 4 5 5 6 7 7 8 9 12 13 14 13 14 15 15 15 15 15 15 16 16 17 17 17 17 17
17 18 19 18 18 20 21 21 20 19 19 18 17 16 18 19 17 15 12 10 10 9 8 9 9 8 7 9 14 18 22 25 28 28 28 28 25 18 15 15 14 13 12 11 10 9 9 8 7 6 6 6 5 4 2 1 1 2 3 5 5 5 7 7 7 7 9 12 13 14 14 15 15 15 15 16 16 16 16 16 16 17 17 16 16
16 17 17 16 14 12 13 16 16 15 16 16 14 15 17 17 17 15 12 10 9 8 7 10 10 10 12 14 17 22 26 27 28 28 28 26 21 16 15 15 14 12 12 11 10 9 8 8 7 7 6 5 4 3 1 0 2 3 4 5 5 5 6 7 7 8 9 11 13 14 14 15 15 16 16 15 15 15 16 16 16 16 16 16 16
15 15 14 14 11 7 5 8 10 10 12 13 14 15 15 15 15 13 11 9 8 8 8 10 10 11 13 16 18 19 19 19 21 23 23 21 19 16 16 16 14 13 12 11 9 9 8 8 7 7 6 5 3 2 1 2 3 3 4 5 5 6 6 6 7 8 9 10 13 14 15 15 15 16 15 14 14 15 16 16 16 16 16 16 16
14 13 13 13 10 7 4 4 6 7 9 11 12 13 13 13 13 12 10 8 7 8 10 10 10 11 14 18 20 17 13 12 15 17 15 14 15 17 17 15 14 14 12 10 9 9 8 8 7 7 6 4 3 2 2 2 3 4 5 5 5 6 6 6 6 7 8 11 13 14 14 14 14 14 14 14 15 16 16 15 15 15 16 16 15
12 12 13 13 11 8 5 2 3 5 8 9 10 10 10 12 11 9 8 7 6 8 10 10 11 12 14 19 22 20 15 14 16 15 12 10 12 15 16 15 14 13 11 9 9 8 8 8 8 6 5 4 3 2 3 3 4 4 5 5 5 6 6 6 6 7 8 10 12 13 13 13 13 13 14 15 16 16 16 15 15 15 15 15 15
11 11 12 12 11 9 6 3 1 1 3 5 6 6 8 11 9 6 7 7 7 8 10 10 13 15 16 19 20 18 17 19 19 17 14 12 13 14 16 15 13 12 10 8 8 8 8 8 7 6 5 4 3 4 4 4 5 5 6 6 6 6 7 6 7 8 9 10 12 13 13 12 13 14 15 15 15 16 16 16 16 16 16 15 15
12 12 12 12 13 11 9 7 5 5 5 4 3 3 6 8 8 8 8 9 9 9 10 11 14 17 18 19 17 16 18 21 20 16 14 13 14 14 15 14 12 11 9 8 8 8 8 8 7 6 5 4 4 4 4 3 4 5 6 6 6 6 7 8 9 10 10 11 13 13 12 12 13 14 15 15 16 17 17 17 17 17 17 16 15
14 14 13 13 14 13 12 11 9 7 7 8 8 7 7 8 8 9 9 9 10 11 11 11 14 16 17 17 17 17 17 18 17 15 15 15 14 14 14 13 12 10 9 9 9 8 8 7 7 6 5 4 3 3 2 4 4 5 6 8 8 8 8 10 11 12 11 12 13 12 12 12 13 13 14 15 16 17 17 17 17 17 17 16 15
15 15 15 15 15 14 13 12 11 10 9 9 10 10 9 9 10 10 10 10 10 12 13 13 14 15 15 15 16 16 16 16 16 16 16 15 14 13 13 12 11 10 9 9 9 9 9 8 6 5 5 3 2 1 2 4 5 6 7 8 10 10 10 11 12 12 12 12 13 13 12 13 12 13 15 16 16 17 17 17 17 16 16 16 15
15 16 15 16 16 15 14 14 13 13 13 12 12 12 12 12 13 14 14 13 12 13 14 14 14 16 16 17 17 17 17 17 18 19 18 16 14 13 12 11 11 10 10 10 9 9 8 7 6 5 4 3 2 2 3 4 5 6 6 7 9 11 11 11 11 11 11 12 13 14 13 13 12 14 16 17 17 17 17 17 16 16 15 15 15
14 14 14 15 15 15 15 15 14 14 15 15 15 15 15 15 16 16 15 15 14 14 15 16 18 19 19 19 19 18 18 19 20 20 18 15 13 12 12 11 10 10 10 10 9 8 7 6 5 4 3 2 1 2 4 5 6 6 6 6 8 10 11 11 11 11 10 11 13 14 13 12 12 14 16 17 17 17 17 17 16 16 15 15 15
13 13 13 13 14 14 14 14 14 15 16 16 16 16 16 16 16 16 15 14 14 14 15 15 17 17 18 17 17 17 17 17 18 16 14 12 12 12 12 11 10 9 9 8 8 8 7 5 4 3 2 1 1 3 5 6 7 7 7 7 7 9 11 11 11 10 10 11 12 12 11 11 12 15 16 17 17 16 16 16 16 15 15 15 15
12 12 12 12 13 13 13 13 13 14 15 16 17 17 16 16 16 16 16 15 15 15 15 14 13 13 13 14 14 15 15 14 14 13 12 11 11 11 11 11 10 9 8 8 7 6 6 4 2 1 1 1 3 4 6 7 7 7 8 7 7 8 10 11 10 9 9 10 10 11 11 11 13 14 15 16 16 16 16 16 16 15 15 15 15
11 11 12 12 13 12 12 12 13 12 12 14 15 15 15 14 15 15 16 16 15 14 13 12 11 12 12 13 13 13 13 13 12 12 11 10 10 9 9 8 8 7 7 7 5 4 4 3 2 1 1 3 4 5 6 7 7 7 7 7 6 7 9 11 10 9 8 9 10 10 10 12 13 13 14 15 16 16 16 16 16 15 15 14 14
Wind_Direction
131 150 168 180 184 186 184 180 178 176 174 173 173 171 170 170 171 171 163 156 156 152 149 149 150 148 146 143 141 140 135 131 128 125 123 119 116 113 114 115 108 102 104 108 104 97 96 93 87 83 80 85 94 91 84 80 73 76 80 83 89 88 79 105 118 124 119 113 117 109 105 106 83 76 84 77 62 62 63 51 40 39 15 316 317
124 143 163 171 177 184 184 182 183 180 176 175 174 172 173 174 178 180 173 167 164 157 152 151 152 152 150 147 146 145 143 141 138 135 134 130 129 128 126 125 118 111 112 122 119 105 102 110 106 101 98 104 115 105 97 98 96 91 82 82 88 78 69 104 124 132 132 137 145 131 117 117 103 92 89 77 66 55 51 35 28 25 11 352 309
231 162 164 177 187 190 189 190 190 184 182 181 178 175 177 179 180 182 180 174 169 163 157 156 157 157 153 149 149 149 149 148 146 145 144 143 144 141 137 134 130 127 131 146 147 129 122 120 110 113 122 132 135 109 107 101 90 96 88 81 87 82 72 84 111 130 136 144 162 154 131 121 113 111 110 87 56 17 359 1 4 6 356 355 331
218 198 188 193 199 201 203 201 196 192 189 188 185 180 181 185 185 184 185 181 176 171 165 161 162 163 160 158 157 156 156 154 153 151 150 152 154 151 150 152 154 158 156 157 158 170 238 235 169 160 170 172 187 169 147 137 110 112 114 108 108 105 99 98 103 126 140 145 155 153 141 151 137 85 4 271 272 337 336 328 324 332 342 343 333
185 185 190 192 195 201 206 207 204 199 196 195 193 187 184 188 190 191 191 189 184 180 174 170 171 172 171 170 166 164 163 161 160 159 160 165 169 171 173 174 180 188 187 195 218 241 266 270 257 226 235 239 232 217 181 169 147 138 135 128 124 119 115 113 111 126 147 143 144 147 148 172 160 64 360 337 325 321 333 331 311 307 325 333 325
164 166 173 180 187 193 198 205 204 198 198 201 199 196 196 197 197 197 197 198 196 192 187 183 182 183 183 181 177 173 172 172 173 172 174 183 191 198 201 206 212 210 208 214 219 225 233 245 254 248 240 246 257 265 278 287 346 61 143 135 117 115 119 125 122 127 143 139 146 160 150 155 280 353 3 351 333 322 337 336 320 309 320 328 325
154 157 165 174 183 191 196 202 203 201 203 206 206 208 210 211 209 205 202 203 203 202 201 198 195 194 193 192 190 183 178 180 180 179 183 191 202 214 221 229 229 221 217 217 219 229 234 232 236 237 231 229 229 230 229 207 117 5 326 329 89 121 132 140 141 143 154 169 184 181 157 155 305 321 344 348 330 327 344 338 326 321 322 322 319
139 144 160 174 182 189 193 199 204 207 210 213 217 223 227 228 223 215 209 207 208 209 210 209 205 203 199 196 195 188 184 188 191 193 198 199 204 216 224 226 224 221 224 225 225 232 234 229 226 228 232 234 224 212 215 214 201 203 218 214 196 198 189 183 202 205 195 204 235 240 224 218 230 330 337 345 342 338 343 336 324 322 322 320 317
122 128 137 145 154 165 169 178 195 206 211 216 219 224 230 230 226 220 214 210 211 212 214 216 215 212 207 201 196 192 191 192 193 198 201 200 203 211 215 215 218 222 226 229 228 229 230 228 224 223 231 242 235 223 228 231 213 200 208 210 204 209 211 217 233 241 238 245 261 270 277 277 291 334 336 343 346 337 332 327 320 320 320 318 318
103 110 113 108 110 129 143 156 183 199 209 217 219 221 222 221 220 221 219 216 217 217 217 220 220 219 216 209 201 198 199 207 217 223 216 203 200 204 208 212 217 223 228 233 235 232 232 232 228 229 237 246 244 237 236 235 218 207 216 217 207 205 221 242 247 249 260 275 283 294 302 298 302 331 337 342 342 330 326 325 318 319 318 317 320
94 96 95 97 103 118 134 153 179 195 205 214 220 224 222 216 218 222 222 223 224 222 222 221 221 224 225 223 221 219 221 232 241 238 223 209 203 202 210 215 214 221 228 232 235 235 237 236 231 233 238 240 239 238 238 232 220 217 223 220 213 212 217 233 243 248 276 291 298 309 314 310 306 315 328 341 337 325 323 320 313 316 319 316 317
85 88 90 97 104 113 131 163 193 207 212 216 219 223 223 219 220 222 226 231 232 231 229 220 216 224 229 235 242 243 241 239 234 226 218 215 208 201 203 206 203 212 223 228 234 234 234 232 222 216 221 227 230 232 234 229 218 217 222 219 219 218 209 207 210 205 241 281 300 300 309 319 318 317 328 334 327 318 314 312 309 312 312 309 307
69 71 78 85 89 94 106 128 177 215 222 222 221 220 222 222 221 221 228 231 230 235 238 220 219 233 239 242 244 242 239 236 227 221 221 217 202 188 185 189 193 207 219 227 238 237 230 227 218 207 210 224 224 217 222 221 212 211 215 214 214 212 203 205 215 225 224 201 256 284 297 322 324 324 318 313 313 311 310 310 309 307 302 299 299
64 61 62 66 69 71 74 84 93 143 206 219 222 222 223 218 210 214 226 232 231 236 240 229 229 239 247 250 245 233 230 231 225 216 209 197 183 173 169 176 190 200 209 228 253 259 254 247 239 223 212 216 212 203 210 215 207 203 203 202 203 203 203 211 221 230 229 213 259 293 310 321 320 323 316 308 307 308 307 306 304 301 296 293 291
59 56 55 55 53 46 44 50 56 88 206 218 223 226 223 213 208 216 227 230 226 221 218 213 217 230 243 246 234 223 222 217 204 193 186 177 169 163 159 168 179 173 164 176 249 262 263 257 256 245 221 216 216 205 201 202 195 189 184 184 192 200 207 212 216 225 230 217 241 272 267 270 281 287 291 297 302 302 300 297 295 292 289 289 287
43 39 31 27 19 2 354 4 16 183 205 219 224 225 219 209 206 208 209 206 197 189 191 198 205 214 227 229 219 215 211 195 182 181 179 173 169 166 164 169 165 148 136 122 112 136 161 215 244 244 213 218 224 204 186 181 180 178 176 176 184 199 210 216 226 241 247 247 250 255 260 270 279 281 283 289 295 298 299 295 291 288 286 289 290
29 23 13 3 351 333 316 298 274 256 250 247 240 234 224 213 203 193 188 186 180 175 176 180 182 182 188 199 201 198 192 184 181 183 184 180 178 179 181 179 167 150 142 127 110 127 155 149 150 135 163 207 217 193 176 174 175 176 178 174 174 184 205 224 241 249 253 258 263 266 270 277 281 284 287 291 293 298 300 295 293 293 291 290 290
16 11 3 352 338 325 316 304 290 280 269 260 257 248 226 208 193 182 177 173 169 166 164 163 164 164 167 178 186 180 179 184 185 187 190 188 186 189 195 187 172 158 149 137 118 123 147 145 131 121 147 183 185 171 169 173 176 179 181 182 178 175 192 224 247 259 263 270 275 278 281 285 287 289 291 292 295 298 291 285 289 293 288 285 288
359 356 350 341 328 317 309 304 300 292 278 268 266 253 221 193 181 177 177 174 168 166 166 164 161 159 159 165 168 164 173 188 191 192 195 196 193 197 209 200 183 175 163 146 127 120 125 133 134 125 120 138 147 154 160 166 181 191 194 200 196 182 184 210 230 256 272 283 287 286 289 291 292 293 289 287 295 297 284 276 282 287 285 287 291
340 336 330 324 318 313 308 304 302 298 289 282 273 252 224 201 188 185 190 190 180 175 174 171 163 157 157 158 156 155 164 181 191 197 202 204 200 201 212 211 192 183 172 155 139 127 122 124 131 124 114 124 138 151 160 163 167 172 180 195 192 178 179 213 246 267 273 278 279 277 279 279 277 275 270 273 283 286 276 271 279 285 288 290 289
322 319 316 311 308 309 310 309 308 302 294 287 276 258 240 228 212 203 205 202 190 184 181 176 169 164 161 159 158 158 161 164 174 186 195 204 203 201 208 214 199 188 179 168 155 138 127 127 133 131 125 134 143 155 169 176 172 163 171 195 202 205 203 230 279 289 282 274 274 275 276 275 270 269 269 269 272 272 269 272 281 286 286 286 287
311 309 307 305 304 305 305 305 306 302 295 288 278 265 251 241 230 221 218 211 199 190 186 182 176 168 163 160 160 163 166 164 166 173 179 190 196 193 194 198 192 186 182 174 160 143 134 137 141 140 138 143 150 157 171 183 192 201 214 219 229 251 264 254 276 287 281 275 278 280 281 281 279 278 278 279 279 278 277 280 284 285 283 281 281
302 300 298 298 297 295 294 294 294 291 288 286 279 268 257 245 234 226 222 217 207 197 191 189 185 176 170 168 171 174 176 174 171 171 174 179 183 185 187 186 181 180 187 183 162 140 141 150 152 150 150 152 154 158 171 189 201 206 209 224 257 297 307 262 262 274 278 280 283 284 284 286 288 288 288 290 292 292 291 288 287 286 284 282 278
292 290 288 288 286 285 284 282 280 277 277 276 273 266 257 247 238 230 225 220 213 207 201 195 194 193 185 178 180 182 180 177 176 173 172 172 175 181 185 180 173 172 178 172 154 143 151 159 159 156 159 163 163 165 175 184 188 181 193 327 345 360 319 258 265 277 281 282 283 285 289 293 294 294 298 302 301 299 295 292 289 287 286 285 282
284 282 281 280 278 278 277 275 272 270 268 265 262 260 255 247 240 233 227 221 217 215 209 203 204 205 189 175 180 182 175 176 177 173 171 170 170 176 180 177 172 167 157 154 158 163 166 164 159 158 161 160 152 150 153 148 137 83 22 23 32 27 283 282 288 290 288 287 290 294 297 297 297 300 302 302 301 299 297 294 291 290 289 287 285
282 278 275 273 272 272 271 270 268 265 261 257 255 254 252 248 243 237 231 227 224 220 215 213 218 217 202 191 195 192 182 181 183 179 177 175 173 175 177 178 178 175 169 167 168 165 161 158 157 158 154 142 135 138 135 112 75 45 39 52 72 262 293 308 304 296 296 299 300 299 298 299 303 304 302 301 300 299 299 297 295 293 292 292 290
287 282 277 273 270 266 263 263 262 260 258 255 252 249 247 246 245 241 235 230 227 224 221 219 223 226 221 211 202 193 186 184 184 182 180 179 178 177 176 176 177 174 168 163 159 157 157 156 156 155 148 141 145 147 125 94 78 59 55 69 80 287 333 348 335 309 300 304 304 301 301 303 303 301 300 300 300 298 298 296 293 292 292 293 292
291 288 284 280 275 269 264 262 260 258 257 254 251 249 244 240 241 242 239 235 232 229 226 223 223 227 227 216 201 194 192 187 181 182 183 179 175 172 172 172 169 160 155 154 154 156 156 151 148 149 146 143 151 153 136 128 128 130 131 160 263 279 331 345 342 320 303 307 308 305 306 305 302 300 301 300 298 297 297 295 291 289 290 291 290
292 289 286 282 278 274 270 265 261 258 258 256 253 250 245 240 238 240 242 245 245 238 230 227 226 226 225 221 213 206 203 196 190 191 194 190 182 175 172 170 162 158 162 163 158 152 149 148 152 159 161 162 169 170 161 154 154 141 109 39 310 315 333 333 328 320 317 314 310 309 309 306 302 301 301 299 297 298 299 297 293 291 290 290 289
288 287 285 281 279 277 274 269 264 260 257 255 253 251 247 244 245 246 243 244 245 240 232 227 224 223 226 231 229 219 208 199 199 203 204 198 189 179 173 169 166 168 171 168 157 150 151 160 168 171 174 179 181 178 168 164 171 163 138 99 289 334 337 329 324 324 319 311 310 311 307 302 300 300 300 300 301 301 301 299 296 294 291 290 289
284 283 282 281 281 280 276 273 270 266 259 254 251 250 246 242 243 246 246 244 242 238 233 226 218 213 214 221 228 220 207 198 203 208 204 193 186 180 176 175 175 173 167 159 153 154 161 169 172 175 182 182 175 171 170 167 170 173 169 200 239 318 327 324 325 324 315 311 314 313 306 302 302 301 301 301 301 301 301 300 297 294 292 291 291
281 279 277 277 278 278 274 272 270 268 264 257 251 249 247 243 236 232 237 244 246 240 233 227 222 218 213 205 200 205 200 197 202 203 194 186 183 182 179 176 173 167 159 154 155 163 169 172 171 171 174 172 166 166 168 164 161 167 197 251 292 322 324 322 320 315 313 318 317 312 309 307 304 303 303 302 301 300 300 300 298 294 291 289 289
278 276 274 272 272 271 270 269 267 265 263 258 251 247 246 246 240 225 219 226 234 233 228 225 226 224 217 208 200 200 201 200 197 191 184 180 178 175 171 169 166 162 157 156 162 167 166 166 164 165 166 166 164 164 163 162 162 168 219 300 318 323 324 324 318 309 313 320 318 313 312 311 308 306 306 304 303 302 300 299 298 295 291 290 290
278 274 271 268 266 265 265 266 265 263 262 258 251 244 242 243 245 237 216 201 203 212 217 217 215 214 211 203 198 202 209 201 190 184 179 173 171 168 164 162 163 161 158 161 168 165 159 158 159 159 159 160 160 162 164 162 165 181 247 309 321 326 329 329 324 316 318 323 323 318 315 313 311 310 309 308 306 304 301 299 297 295 293 293 294
277 273 270 267 263 260 259 260 260 261 261 259 253 244 239 238 240 240 231 213 198 197 199 202 205 208 205 193 186 196 216 211 195 186 178 170 168 166 161 157 160 163 163 167 167 159 155 156 155 153 155 158 160 163 163 161 171 212 301 325 327 330 332 331 328 324 323 326 327 324 319 317 315 313 311 309 306 303 300 298 296 293 293 294 294
282 280 277 274 268 261 254 252 252 253 256 260 259 248 238 234 234 236 235 226 204 186 168 152 171 202 210 201 195 204 219 214 197 186 178 171 168 166 159 156 160 166 167 165 160 154 151 150 148 150 154 158 160 162 162 165 189 251 329 329 328 332 334 333 335 337 334 333 333 330 325 322 320 317 313 309 304 302 300 297 295 293 291 291 293
295 294 292 288 281 270 256 246 244 245 248 257 265 256 238 230 229 231 231 223 209 194 164 137 136 152 180 190 192 196 202 198 188 180 174 169 165 162 158 157 161 165 162 156 151 149 145 142 143 148 153 157 162 163 159 168 223 314 334 328 326 329 327 327 336 342 339 336 336 333 329 326 324 320 315 309 305 303 300 297 297 296 294 293 293
303 305 306 303 294 280 261 244 236 236 240 247 258 258 244 230 221 224 228 220 210 204 177 150 149 151 151 166 179 179 178 177 172 167 164 162 160 160 160 160 161 160 153 146 144 144 140 136 139 146 152 155 160 160 154 163 311 338 338 328 323 323 324 328 336 339 336 337 339 337 332 328 326 323 317 310 307 306 303 300 299 298 298 298 296
313 316 321 321 315 296 265 241 229 229 233 236 243 251 247 231 217 217 222 214 201 192 161 143 148 154 156 164 170 169 166 164 161 159 161 163 164 165 162 158 154 149 142 139 139 137 133 132 137 144 150 153 154 153 141 37 346 341 335 327 324 329 333 338 341 340 339 342 344 339 333 328 326 323 319 314 312 310 306 301 298 297 297 297 296
325 326 330 332 334 329 282 239 226 225 227 229 237 244 238 221 208 209 211 203 194 183 162 148 147 153 162 167 164 159 160 160 157 158 164 168 168 163 155 149 143 138 136 136 136 133 132 136 141 145 149 149 147 138 93 22 353 340 334 332 331 334 337 339 341 343 346 347 343 337 331 327 324 322 320 318 314 310 305 299 297 296 294 294 294
335 336 338 339 340 337 309 248 230 229 223 223 236 242 225 205 199 199 194 187 180 173 167 154 142 151 172 176 165 151 142 139 141 147 158 166 160 150 144 140 136 133 133 134 133 133 135 140 144 147 149 146 138 116 74 25 359 347 342 341 340 340 340 341 341 344 348 347 341 334 327 322 320 319 316 314 312 309 305 301 299 299 298 296 295
344 346 347 348 349 346 333 303 250 235 221 221 239 243 213 191 187 181 168 160 153 156 158 144 127 136 162 170 161 148 134 125 126 128 134 146 145 136 131 129 129 131 133 134 134 137 139 140 143 146 139 127 108 83 59 28 8 360 354 351 351 348 346 345 342 342 345 343 336 329 323 318 316 314 311 311 313 315 311 306 303 304 303 301 300
354 357 358 0 5 8 8 10 43 178 189 211 241 240 196 175 163 135 123 125 127 137 144 134 122 128 144 153 152 144 134 132 133 129 129 136 137 128 123 124 127 129 130 130 132 134 135 138 143 143 127 109 89 76 62 35 20 13 3 359 360 356 352 348 343 341 343 340 334 330 324 318 315 314 313 313 315 316 313 310 310 311 310 308 306
8 9 12 15 19 26 33 42 68 98 120 137 148 153 155 151 133 111 112 118 117 121 129 125 120 124 133 141 143 138 134 138 142 139 132 130 126 120 121 125 127 127 127 127 127 128 132 139 144 138 119 102 92 86 69 40 29 21 10 9 11 2 352 350 347 344 343 341 337 332 324 317 315 316 315 314 315 316 316 316 317 317 315 313 311
19 18 21 25 27 32 39 47 63 92 118 127 124 120 122 118 106 100 106 112 110 111 114 117 120 126 132 138 137 131 130 134 137 136 134 132 128 125 129 131 129 127 126 121 117 119 128 138 139 128 111 100 97 88 49 22 21 18 15 19 21 10 356 351 350 347 344 343 340 332 323 317 315 314 314 314 316 319 321 322 322 321 319 318 316
25 24 27 32 35 38 43 47 55 70 87 101 107 106 103 99 95 94 97 102 108 112 114 116 120 125 128 130 128 124 123 126 126 127 130 130 127 129 133 131 127 124 121 116 118 127 135 138 134 124 113 108 105 82 35 16 11 8 9 13 16 11 2 355 351 349 348 347 341 332 323 318 315 313 315 317 319 322 324 325 324 324 323 321 320
30 30 32 36 38 42 46 49 54 62 69 77 87 92 93 93 93 91 92 96 104 111 113 115 117 118 121 123 124 124 126 129 131 132 131 126 123 125 128 126 122 119 114 111 119 131 138 139 135 124 114 111 102 68 41 22 12 9 6 3 3 4 1 356 353 352 352 348 341 336 332 326 318 315 318 321 323 326 327 327 328 328 326 323 324
33 34 35 35 36 41 45 46 51 59 66 73 79 83 87 90 91 90 93 97 101 102 103 104 108 113 118 122 125 128 130 134 137 137 132 125 122 123 124 122 119 117 114 119 129 138 142 143 138 126 112 107 93 37 18 13 12 10 5 356 353 356 358 358 356 355 353 349 346 344 340 326 313 314 320 325 327 329 330 330 332 332 330 327 328
38 39 39 37 37 41 45 47 50 56 64 71 77 80 83 86 87 88 91 92 90 91 94 98 104 112 117 120 122 126 129 133 134 131 124 120 121 124 126 125 118 111 116 130 145 152 152 147 141 138 131 105 44 12 5 2 359 357 356 352 349 353 358 359 356 355 355 352 350 350 345 326 313 317 326 330 331 332 333 333 335 335 333 331 331
43 44 44 43 44 46 49 52 54 57 60 65 70 73 76 77 79 84 89 89 87 89 95 99 103 107 110 114 118 122 125 127 127 123 119 119 120 124 131 135 130 124 128 139 149 157 160 157 149 155 148 46 16 8 1 353 346 345 349 351 349 353 358 359 357 356 356 352 351 357 355 336 321 323 331 335 335 336 337 337 337 337 336 336 336
49 50 49 49 51 52 52 54 55 55 57 60 65 68 71 72 76 82 87 89 89 91 94 96 99 103 106 111 115 119 122 127 128 123 117 114 113 117 128 138 138 137 137 138 143 155 161 156 147 121 49 21 14 12 3 351 344 346 350 349 348 354 359 360 360 358 355 351 353 357 351 334 325 327 334 338 339 340 339 339 340 340 339 341 341